M I D A S
Marine Information and Data Acquisition System
Tripno 712 of the Zeeleeuw from 2004-05-05 06:36:16 to 2004-05-05 12:16:44
Back to CruiseResearch ActivitiesStationsMapUnderway DataData graphs

EquipmentUnitsComments
TimeDGPSUTC
LatitudeDGPSDM.mWGS84
LongitudeDGPSDM.mWGS84
SpeedMeteo Stationm/sRelative wind speed
DirectionMeteo StationdegRelative wind direction
TemperatureMeteo Stationdeg CelciusAir temperature
PressureMeteo StationPaAtmospheric pressure
HumidityMeteo Station%Relative humidity
Missing or incorrect values are displayed as -999
Metereological data collected by the RV Zeeleeuw from 2004-05-05 06:36:16 to 2004-05-05 12:16:44
                                                                                    Next 1000 lines
Time Latitude Longitude Speed Direction Temperature Pressure Humidity
2004-05-05 06:36:24 51°13.605 2°56.06 1.3 32 7.2 98230 81
2004-05-05 06:36:29 51°13.607 2°56.053 3.6 79 7.2 98230 81
2004-05-05 06:36:33 51°13.609 2°56.046 3.6 55 7.2 98230 81
2004-05-05 06:36:38 51°13.611 2°56.038 6.9 96 7.2 98230 81
2004-05-05 06:36:43 51°13.614 2°56.03 6.3 82 7.2 98240 81
2004-05-05 06:36:48 51°13.616 2°56.021 8.9 81 7.2 98240 81
2004-05-05 06:36:53 51°13.619 2°56.012 9.3 92 7.2 98230 81
2004-05-05 06:36:58 51°13.621 2°56.003 7.5 88 7.2 98230 81
2004-05-05 06:37:02 51°13.623 2°55.996 6.4 76 7.2 98240 81
2004-05-05 06:37:08 51°13.626 2°55.985 5.9 66 7.2 98240 81
2004-05-05 06:37:13 51°13.629 2°55.975 6.7 81 7.2 98240 81
2004-05-05 06:37:18 51°13.632 2°55.965 4.9 83 7.2 98240 81
2004-05-05 06:37:24 51°13.635 2°55.953 4 97 7.1 98230 81
2004-05-05 06:37:28 51°13.637 2°55.945 8 88 7.1 98230 81
2004-05-05 06:37:32 51°13.64 2°55.937 7.9 62 7.2 98230 81
2004-05-05 06:37:38 51°13.643 2°55.924 8.1 97 7.2 98230 81
2004-05-05 06:37:44 51°13.646 2°55.911 5.7 119 7.2 98240 81
2004-05-05 06:37:48 51°13.648 2°55.902 6.6 101 7.2 98240 81
2004-05-05 06:37:53 51°13.651 2°55.891 4.5 79 7.3 98240 81
2004-05-05 06:37:58 51°13.654 2°55.88 5.4 114 7.3 98240 81
2004-05-05 06:38:02 51°13.656 2°55.871 4.7 122 7.2 98230 81
2004-05-05 06:38:08 51°13.659 2°55.857 5.9 131 7.2 98230 81
2004-05-05 06:38:13 51°13.661 2°55.846 6.3 100 7.1 98230 81
2004-05-05 06:38:18 51°13.663 2°55.835 4.6 102 7.1 98230 81
2004-05-05 06:38:24 51°13.665 2°55.821 4 109 7.2 98240 81
2004-05-05 06:38:28 51°13.666 2°55.812 3.6 137 7.2 98240 81
2004-05-05 06:38:33 51°13.667 2°55.8 5.4 146 7.2 98240 81
2004-05-05 06:38:38 51°13.667 2°55.789 5.8 155 7.2 98240 81
2004-05-05 06:38:43 51°13.668 2°55.778 4.8 131 7.2 98240 81
2004-05-05 06:38:48 51°13.667 2°55.767 5.1 146 7.2 98240 81
2004-05-05 06:38:53 51°13.667 2°55.759 7.8 125 7.2 98240 81
2004-05-05 06:38:58 51°13.667 2°55.754 8.2 119 7.2 98240 81
2004-05-05 06:39:03 51°13.667 2°55.752 5.4 128 7.2 98240 81
2004-05-05 06:39:08 51°13.667 2°55.752 5.3 140 7.2 98240 81
2004-05-05 06:39:13 51°13.668 2°55.753 4 153 7.2 98240 81
2004-05-05 06:39:18 51°13.67 2°55.755 2.9 147 7.2 98240 81
2004-05-05 06:39:23 51°13.672 2°55.758 3.4 38 7.2 98230 81
2004-05-05 06:39:28 51°13.674 2°55.761 6.3 154 7.2 98230 81
2004-05-05 06:39:33 51°13.677 2°55.763 4.7 173 7.2 98240 80
2004-05-05 06:39:37 51°13.679 2°55.765 5.6 165 7.2 98240 80
2004-05-05 06:39:42 51°13.68 2°55.766 10.8 169 7.2 98240 80
2004-05-05 06:39:48 51°13.681 2°55.766 9.2 165 7.2 98240 80
2004-05-05 06:39:52 51°13.681 2°55.766 7.9 164 7.2 98240 80
2004-05-05 06:39:58 51°13.68 2°55.765 7 170 7.2 98240 80
2004-05-05 06:40:03 51°13.679 2°55.764 7.6 154 7.2 98250 80
2004-05-05 06:40:08 51°13.677 2°55.762 5.5 154 7.2 98250 80
2004-05-05 06:40:13 51°13.675 2°55.761 6.4 173 7.2 98250 80
2004-05-05 06:40:18 51°13.675 2°55.76 8.4 167 7.2 98250 80
2004-05-05 06:40:22 51°13.675 2°55.76 7.9 162 7.2 98240 80
2004-05-05 06:40:28 51°13.677 2°55.759 4.2 202 7.2 98240 80
2004-05-05 06:40:32 51°13.679 2°55.759 4.2 213 7.2 98240 80
2004-05-05 06:40:38 51°13.684 2°55.757 3.8 213 7.2 98240 80
2004-05-05 06:40:42 51°13.688 2°55.755 6.6 223 7.2 98240 80
2004-05-05 06:40:48 51°13.693 2°55.751 7.6 218 7.2 98240 80
2004-05-05 06:40:52 51°13.697 2°55.748 6.9 193 7.2 98240 80
2004-05-05 06:40:58 51°13.702 2°55.744 5.4 231 7.2 98240 80
2004-05-05 06:41:02 51°13.706 2°55.74 5.1 226 7.2 98250 80
2004-05-05 06:41:08 51°13.712 2°55.734 4 240 7.2 98250 80
2004-05-05 06:41:13 51°13.719 2°55.729 4.9 219 7.2 98260 80
2004-05-05 06:41:18 51°13.725 2°55.724 5.1 209 7.2 98260 80
2004-05-05 06:41:22 51°13.731 2°55.72 3.3 206 7.2 98250 80
2004-05-05 06:41:28 51°13.741 2°55.713 4.7 210 7.2 98250 80
2004-05-05 06:41:32 51°13.748 2°55.708 2 216 7.2 98260 80
2004-05-05 06:41:38 51°13.759 2°55.701 3.1 214 7.2 98260 80
2004-05-05 06:41:42 51°13.766 2°55.695 3 216 7.2 98240 80
2004-05-05 06:41:48 51°13.778 2°55.686 2 245 7.2 98240 80
2004-05-05 06:41:52 51°13.786 2°55.681 2.1 221 7.2 98250 80
2004-05-05 06:41:58 51°13.8 2°55.673 2.2 220 7.2 98250 80
2004-05-05 06:42:02 51°13.809 2°55.668 2.3 211 7.2 98250 80
2004-05-05 06:42:08 51°13.823 2°55.66 2.5 207 7.2 98250 80
2004-05-05 06:42:12 51°13.832 2°55.655 1.3 142 7.2 98240 80
2004-05-05 06:42:18 51°13.846 2°55.649 2.3 144 7.2 98240 80
2004-05-05 06:42:23 51°13.857 2°55.644 2.4 157 7.2 98240 80
2004-05-05 06:42:28 51°13.87 2°55.641 1.6 161 7.2 98240 80
2004-05-05 06:42:33 51°13.882 2°55.638 1.8 109 7.2 98240 80
2004-05-05 06:42:37 51°13.892 2°55.635 1.7 158 7.2 98240 80
2004-05-05 06:42:42 51°13.904 2°55.632 2.1 134 7.3 98240 80
2004-05-05 06:42:48 51°13.918 2°55.628 1.3 124 7.3 98240 80
2004-05-05 06:42:52 51°13.928 2°55.626 1.7 155 7.3 98240 80
2004-05-05 06:42:58 51°13.942 2°55.623 1.8 147 7.3 98240 80
2004-05-05 06:43:02 51°13.952 2°55.62 4 144 7.3 98240 80
2004-05-05 06:43:08 51°13.966 2°55.617 3.8 165 7.3 98240 80
2004-05-05 06:43:12 51°13.975 2°55.614 3.4 186 7.3 98250 80
2004-05-05 06:43:18 51°13.988 2°55.609 2.6 199 7.3 98250 80
2004-05-05 06:43:23 51°13.998 2°55.604 2 197 7.3 98240 80
2004-05-05 06:43:28 51°14.007 2°55.596 3.4 234 7.3 98240 80
2004-05-05 06:43:33 51°14.015 2°55.588 3.7 251 7.3 98240 80
2004-05-05 06:43:37 51°14.022 2°55.58 3.5 241 7.3 98240 80
2004-05-05 06:43:42 51°14.029 2°55.569 3.8 236 7.4 98240 80
2004-05-05 06:43:48 51°14.037 2°55.556 2.5 246 7.4 98240 80
2004-05-05 06:43:52 51°14.043 2°55.547 2.1 229 7.4 98240 80
2004-05-05 06:43:58 51°14.052 2°55.533 3.5 287 7.4 98240 80
2004-05-05 06:44:02 51°14.058 2°55.524 4.1 238 7.4 98240 80
2004-05-05 06:44:08 51°14.066 2°55.51 6.6 281 7.4 98240 80
2004-05-05 06:44:12 51°14.072 2°55.5 3.5 239 7.4 98230 80
2004-05-05 06:44:18 51°14.082 2°55.486 4.2 230 7.4 98230 80
2004-05-05 06:44:22 51°14.088 2°55.476 3.5 220 7.4 98240 79
2004-05-05 06:44:28 51°14.1 2°55.462 2.3 259 7.4 98240 79
2004-05-05 06:44:32 51°14.107 2°55.453 3.2 274 7.4 98250 79
2004-05-05 06:44:38 51°14.12 2°55.439 2.2 267 7.4 98250 79
2004-05-05 06:44:42 51°14.129 2°55.43 3.1 295 7.4 98250 79
2004-05-05 06:44:48 51°14.143 2°55.416 4.5 285 7.4 98250 79
2004-05-05 06:44:53 51°14.154 2°55.404 4.2 278 7.4 98240 79
2004-05-05 06:44:58 51°14.166 2°55.392 4.3 276 7.4 98240 79
2004-05-05 06:45:02 51°14.175 2°55.382 3.6 230 7.4 98240 79
2004-05-05 06:45:08 51°14.19 2°55.366 3.3 310 7.4 98240 79
2004-05-05 06:45:12 51°14.2 2°55.355 2.3 253 7.4 98240 79
2004-05-05 06:45:18 51°14.215 2°55.338 2.9 289 7.4 98240 79
2004-05-05 06:45:22 51°14.224 2°55.325 3.1 280 7.4 98240 79
2004-05-05 06:45:28 51°14.238 2°55.305 4.7 299 7.4 98240 79
2004-05-05 06:45:33 51°14.249 2°55.288 5.1 274 7.4 98240 79
2004-05-05 06:45:37 51°14.257 2°55.273 5 274 7.4 98240 79
2004-05-05 06:45:43 51°14.27 2°55.251 2.7 284 7.4 98240 79
2004-05-05 06:45:48 51°14.28 2°55.232 7.5 291 7.4 98240 79
2004-05-05 06:45:52 51°14.289 2°55.216 5.7 297 7.4 98240 79
2004-05-05 06:45:58 51°14.301 2°55.193 5.4 232 7.4 98240 79
2004-05-05 06:46:02 51°14.309 2°55.177 6.3 292 7.4 98250 79
2004-05-05 06:46:08 51°14.322 2°55.152 5.5 275 7.4 98250 79
2004-05-05 06:46:12 51°14.33 2°55.136 5.7 257 7.4 98240 79
2004-05-05 06:46:18 51°14.343 2°55.111 3 255 7.4 98240 79
2004-05-05 06:46:23 51°14.354 2°55.091 3.7 241 7.4 98230 79
2004-05-05 06:46:28 51°14.365 2°55.07 3 227 7.4 98230 79
2004-05-05 06:46:33 51°14.377 2°55.048 2.2 269 7.4 98230 79
2004-05-05 06:46:38 51°14.388 2°55.026 3.7 319 7.4 98230 79
2004-05-05 06:46:42 51°14.396 2°55.007 5.1 342 7.4 98240 79
2004-05-05 06:46:48 51°14.409 2°54.979 5.4 320 7.4 98240 79
2004-05-05 06:46:53 51°14.419 2°54.954 3.6 326 7.4 98240 78
2004-05-05 06:46:58 51°14.429 2°54.929 6.4 317 7.4 98240 78
2004-05-05 06:47:02 51°14.436 2°54.908 7.2 41 7.4 98240 78
2004-05-05 06:47:08 51°14.445 2°54.875 6.6 304 7.4 98240 78
2004-05-05 06:47:13 51°14.451 2°54.846 8 304 7.4 98240 78
2004-05-05 06:47:18 51°14.456 2°54.816 9.9 321 7.4 98240 78
2004-05-05 06:47:22 51°14.46 2°54.792 9.6 316 7.4 98240 79
2004-05-05 06:47:28 51°14.466 2°54.756 9.6 308 7.4 98240 79
2004-05-05 06:47:32 51°14.469 2°54.732 9.4 299 7.4 98240 79
2004-05-05 06:47:38 51°14.475 2°54.696 9 315 7.4 98240 79
2004-05-05 06:47:42 51°14.479 2°54.672 8.4 310 7.4 98230 79
2004-05-05 06:47:48 51°14.483 2°54.634 8.9 232 7.4 98230 79
2004-05-05 06:47:52 51°14.485 2°54.61 10.1 303 7.4 98230 79
2004-05-05 06:47:58 51°14.486 2°54.576 11.1 306 7.4 98230 79
2004-05-05 06:48:03 51°14.487 2°54.549 9.3 312 7.4 98230 79
2004-05-05 06:48:08 51°14.486 2°54.523 10 307 7.4 98230 79
2004-05-05 06:48:13 51°14.484 2°54.499 10.6 313 7.5 98220 79
2004-05-05 06:48:18 51°14.481 2°54.477 9.5 313 7.5 98220 79
2004-05-05 06:48:23 51°14.479 2°54.456 9.7 308 7.5 98220 79
2004-05-05 06:48:28 51°14.477 2°54.437 12.9 293 7.5 98220 79
2004-05-05 06:48:33 51°14.475 2°54.419 10.9 292 7.5 98230 79
2004-05-05 06:48:36 51°14.475 2°54.408 10.9 300 7.5 98230 79
2004-05-05 06:48:42 51°14.473 2°54.388 8.7 296 7.5 98220 79
2004-05-05 06:48:48 51°14.472 2°54.369 11 280 7.5 98220 79
2004-05-05 06:48:52 51°14.472 2°54.357 9.5 284 7.5 98220 79
2004-05-05 06:48:56 51°14.471 2°54.346 8.5 283 7.5 98220 79
2004-05-05 06:49:02 51°14.471 2°54.329 8.6 294 7.5 98230 79
2004-05-05 06:49:08 51°14.47 2°54.312 10.2 287 7.5 98230 79
2004-05-05 06:49:12 51°14.47 2°54.302 11.1 268 7.5 98230 79
2004-05-05 06:49:18 51°14.47 2°54.286 11.5 272 7.5 98230 79
2004-05-05 06:49:22 51°14.471 2°54.276 11.3 277 7.6 98240 79
2004-05-05 06:49:28 51°14.471 2°54.261 12 276 7.6 98240 79
2004-05-05 06:49:32 51°14.472 2°54.252 12.8 273 7.6 98230 79
2004-05-05 06:49:38 51°14.472 2°54.238 11.4 279 7.6 98230 79
2004-05-05 06:49:42 51°14.473 2°54.229 12.2 271 7.6 98230 80
2004-05-05 06:49:48 51°14.474 2°54.216 10.1 264 7.6 98230 80
2004-05-05 06:49:52 51°14.474 2°54.207 9.2 258 7.6 98250 80
2004-05-05 06:49:57 51°14.475 2°54.197 6.8 252 7.6 98250 80
2004-05-05 06:50:00 51°14.476 2°54.191 8.9 258 7.5 98240 79
2004-05-05 06:50:06 51°14.477 2°54.179 10.8 278 7.5 98240 79
2004-05-05 06:50:12 51°14.478 2°54.167 9.1 281 7.5 98240 79
2004-05-05 06:50:18 51°14.48 2°54.156 9.7 270 7.5 98240 79
2004-05-05 06:50:22 51°14.481 2°54.148 10.6 270 7.5 98250 79
2004-05-05 06:50:28 51°14.482 2°54.137 9.4 272 7.5 98250 79
2004-05-05 06:50:32 51°14.483 2°54.13 10.8 265 7.5 98230 79
2004-05-05 06:50:37 51°14.484 2°54.121 11.1 270 7.5 98230 79
2004-05-05 06:50:42 51°14.485 2°54.112 11.6 264 7.5 98240 79
2004-05-05 06:50:48 51°14.486 2°54.102 8.6 257 7.5 98240 79
2004-05-05 06:50:52 51°14.487 2°54.095 11 264 7.5 98240 79
2004-05-05 06:50:58 51°14.488 2°54.085 7.7 261 7.5 98240 79
2004-05-05 06:51:02 51°14.489 2°54.079 9.7 270 7.5 98240 79
2004-05-05 06:51:08 51°14.49 2°54.069 7.8 264 7.5 98240 79
2004-05-05 06:51:13 51°14.491 2°54.061 8.4 275 7.5 98240 79
2004-05-05 06:51:18 51°14.491 2°54.053 11.3 263 7.5 98240 79
2004-05-05 06:51:22 51°14.492 2°54.047 9.7 276 7.5 98250 79
2004-05-05 06:51:28 51°14.493 2°54.038 7.2 250 7.5 98250 79
2004-05-05 06:51:33 51°14.493 2°54.031 5.7 254 7.5 98240 80
2004-05-05 06:51:38 51°14.494 2°54.024 9.1 239 7.5 98240 80
2004-05-05 06:51:42 51°14.494 2°54.018 9.7 243 7.5 98230 79
2004-05-05 06:51:48 51°14.495 2°54.01 8 251 7.5 98230 79
2004-05-05 06:51:52 51°14.496 2°54.004 7.5 253 7.5 98240 80
2004-05-05 06:51:58 51°14.497 2°53.996 13.3 267 7.5 98240 80
2004-05-05 06:52:02 51°14.497 2°53.991 12.8 270 7.5 98240 79
2004-05-05 06:52:08 51°14.498 2°53.983 11.3 267 7.5 98240 79
2004-05-05 06:52:13 51°14.499 2°53.976 11 267 7.5 98240 79
2004-05-05 06:52:18 51°14.499 2°53.97 10.4 271 7.5 98240 79
2004-05-05 06:52:22 51°14.499 2°53.965 10.3 263 7.5 98250 80
2004-05-05 06:52:28 51°14.5 2°53.958 10.5 266 7.5 98250 80
2004-05-05 06:52:33 51°14.501 2°53.952 7.4 264 7.5 98240 80
2004-05-05 06:52:38 51°14.501 2°53.946 9.5 271 7.5 98240 80
2004-05-05 06:52:43 51°14.501 2°53.94 10.9 267 7.5 98240 80
2004-05-05 06:52:48 51°14.502 2°53.934 12.4 266 7.5 98240 80
2004-05-05 06:52:53 51°14.502 2°53.928 9.1 262 7.5 98250 80
2004-05-05 06:52:58 51°14.503 2°53.923 6.6 259 7.5 98250 80
2004-05-05 06:53:02 51°14.503 2°53.918 7.4 257 7.5 98230 80
2004-05-05 06:53:08 51°14.504 2°53.912 7 254 7.5 98230 80
2004-05-05 06:53:12 51°14.504 2°53.907 10.9 269 7.5 98240 80
2004-05-05 06:53:18 51°14.505 2°53.9 7.3 256 7.5 98240 80
2004-05-05 06:53:23 51°14.506 2°53.893 8 254 7.5 98240 80
2004-05-05 06:53:28 51°14.508 2°53.886 9 253 7.5 98240 80
2004-05-05 06:53:32 51°14.51 2°53.879 9.6 237 7.5 98240 79
2004-05-05 06:53:38 51°14.514 2°53.87 8.6 229 7.5 98240 79
2004-05-05 06:53:42 51°14.517 2°53.864 9.2 227 7.5 98240 80
2004-05-05 06:53:48 51°14.523 2°53.855 7.6 231 7.5 98240 80
2004-05-05 06:53:52 51°14.527 2°53.849 8.8 229 7.4 98260 80
2004-05-05 06:53:58 51°14.534 2°53.841 7.5 229 7.4 98260 80
2004-05-05 06:54:02 51°14.539 2°53.835 7.4 236 7.4 98250 80
2004-05-05 06:54:08 51°14.549 2°53.827 7.1 231 7.4 98250 80
2004-05-05 06:54:13 51°14.558 2°53.82 5.8 233 7.5 98250 80
2004-05-05 06:54:18 51°14.568 2°53.812 5.7 233 7.5 98250 80
2004-05-05 06:54:23 51°14.579 2°53.802 5.9 233 7.4 98250 80
2004-05-05 06:54:28 51°14.591 2°53.793 5 227 7.4 98250 80
2004-05-05 06:54:33 51°14.603 2°53.782 6.7 220 7.4 98240 80
2004-05-05 06:54:38 51°14.617 2°53.772 6.9 223 7.4 98240 80
2004-05-05 06:54:42 51°14.629 2°53.764 5.6 228 7.4 98240 80
2004-05-05 06:54:48 51°14.646 2°53.752 3.4 242 7.4 98240 80
2004-05-05 06:54:53 51°14.662 2°53.742 5 222 7.4 98240 79
2004-05-05 06:54:58 51°14.678 2°53.732 5.5 220 7.4 98240 79
2004-05-05 06:55:02 51°14.691 2°53.724 4.2 224 7.3 98240 79
2004-05-05 06:55:08 51°14.71 2°53.712 4.9 214 7.3 98240 79
2004-05-05 06:55:12 51°14.723 2°53.703 4.4 208 7.3 98240 79
2004-05-05 06:55:18 51°14.742 2°53.689 3.3 217 7.3 98240 79
2004-05-05 06:55:22 51°14.755 2°53.679 3.5 225 7.3 98250 79
2004-05-05 06:55:28 51°14.775 2°53.665 3.1 251 7.3 98250 79
2004-05-05 06:55:32 51°14.788 2°53.656 3.7 231 7.3 98240 79
2004-05-05 06:55:38 51°14.808 2°53.642 3.8 231 7.3 98240 79
2004-05-05 06:55:43 51°14.824 2°53.63 3.4 252 7.3 98240 79
2004-05-05 06:55:48 51°14.84 2°53.617 3.7 248 7.3 98240 79
2004-05-05 06:55:52 51°14.853 2°53.607 3.5 270 7.3 98230 79
2004-05-05 06:55:58 51°14.873 2°53.592 4.5 244 7.3 98230 79
2004-05-05 06:56:02 51°14.886 2°53.582 5.8 232 7.4 98240 80
2004-05-05 06:56:08 51°14.905 2°53.566 4.3 240 7.4 98240 80
2004-05-05 06:56:13 51°14.92 2°53.553 5.6 237 7.4 98240 80
2004-05-05 06:56:18 51°14.937 2°53.541 5.2 239 7.4 98240 80
2004-05-05 06:56:23 51°14.953 2°53.529 4.9 238 7.4 98240 80
2004-05-05 06:56:28 51°14.97 2°53.518 5.3 230 7.4 98240 80
2004-05-05 06:56:33 51°14.986 2°53.508 4.3 224 7.3 98240 80
2004-05-05 06:56:38 51°15.004 2°53.5 3.9 207 7.3 98240 80
2004-05-05 06:56:41 51°15.014 2°53.496 2.9 181 7.4 98240 80
2004-05-05 06:56:48 51°15.038 2°53.487 2.1 174 7.4 98240 80
2004-05-05 06:56:53 51°15.056 2°53.481 3.4 212 7.4 98250 80
2004-05-05 06:56:58 51°15.073 2°53.475 2.9 204 7.4 98250 80
2004-05-05 06:57:02 51°15.087 2°53.471 3 202 7.4 98240 80
2004-05-05 06:57:08 51°15.107 2°53.464 3 217 7.4 98240 80
2004-05-05 06:57:13 51°15.125 2°53.458 3.5 232 7.4 98240 80
2004-05-05 06:57:17 51°15.138 2°53.453 4 235 7.4 98240 80
2004-05-05 06:57:20 51°15.149 2°53.448 4.5 238 7.5 98240 81
2004-05-05 06:57:28 51°15.176 2°53.433 4.2 236 7.5 98240 81
2004-05-05 06:57:32 51°15.189 2°53.424 5.7 234 7.5 98240 81
2004-05-05 06:57:38 51°15.209 2°53.411 4.8 243 7.5 98240 81
2004-05-05 06:57:42 51°15.222 2°53.402 3.8 241 7.5 98240 81
2004-05-05 06:57:48 51°15.242 2°53.388 3.5 249 7.5 98240 81
2004-05-05 06:57:52 51°15.255 2°53.378 3.5 246 7.5 98240 80
2004-05-05 06:57:58 51°15.275 2°53.363 4.2 248 7.5 98240 80
2004-05-05 06:58:03 51°15.292 2°53.352 5 254 7.5 98250 80
2004-05-05 06:58:08 51°15.309 2°53.341 5.1 238 7.5 98250 80
2004-05-05 06:58:13 51°15.326 2°53.331 5.2 241 7.5 98240 80
2004-05-05 06:58:17 51°15.34 2°53.324 4.9 242 7.5 98240 80
2004-05-05 06:58:21 51°15.354 2°53.316 4.3 233 7.6 98250 80
2004-05-05 06:58:28 51°15.378 2°53.304 4.4 230 7.6 98250 80
2004-05-05 06:58:32 51°15.392 2°53.297 3.9 237 7.6 98250 81
2004-05-05 06:58:38 51°15.413 2°53.285 4.4 243 7.6 98250 81
2004-05-05 06:58:42 51°15.427 2°53.277 4.3 241 7.5 98250 80
2004-05-05 06:58:48 51°15.448 2°53.265 5.3 234 7.5 98250 80
2004-05-05 06:58:53 51°15.465 2°53.254 5.4 246 7.5 98240 80
2004-05-05 06:58:58 51°15.483 2°53.243 5.4 237 7.5 98240 80
2004-05-05 06:59:02 51°15.497 2°53.234 4.9 247 7.5 98240 80
2004-05-05 06:59:08 51°15.517 2°53.22 6.8 240 7.5 98240 80
2004-05-05 06:59:13 51°15.535 2°53.209 5.9 240 7.5 98240 80
2004-05-05 06:59:18 51°15.552 2°53.198 3.5 250 7.5 98240 80
2004-05-05 06:59:22 51°15.566 2°53.19 4.5 242 7.5 98240 80
2004-05-05 06:59:28 51°15.586 2°53.177 4.4 241 7.5 98240 80
2004-05-05 06:59:33 51°15.604 2°53.167 4 239 7.6 98240 80
2004-05-05 06:59:38 51°15.621 2°53.157 4.2 222 7.6 98240 80
2004-05-05 06:59:42 51°15.635 2°53.149 4.1 225 7.5 98240 80
2004-05-05 06:59:48 51°15.656 2°53.137 3.9 234 7.5 98240 80
2004-05-05 06:59:53 51°15.674 2°53.127 3.3 227 7.5 98240 80
2004-05-05 06:59:58 51°15.691 2°53.116 3.2 237 7.5 98240 80
2004-05-05 07:00:02 51°15.705 2°53.107 4.3 226 7.5 98240 80
2004-05-05 07:00:08 51°15.726 2°53.094 3.9 227 7.5 98240 80
2004-05-05 07:00:12 51°15.739 2°53.085 3.6 231 7.5 98250 80
2004-05-05 07:00:18 51°15.76 2°53.071 3.4 249 7.5 98250 80
2004-05-05 07:00:22 51°15.774 2°53.062 2.8 255 7.5 98250 80
2004-05-05 07:00:28 51°15.795 2°53.048 4.8 235 7.5 98250 80
2004-05-05 07:00:32 51°15.808 2°53.039 4.3 246 7.4 98240 79
2004-05-05 07:00:38 51°15.829 2°53.025 4.8 239 7.4 98240 79
2004-05-05 07:00:42 51°15.843 2°53.016 3.3 250 7.4 98240 79
2004-05-05 07:00:48 51°15.863 2°53.003 4.1 236 7.4 98240 79
2004-05-05 07:00:53 51°15.88 2°52.992 4.3 235 7.4 98240 80
2004-05-05 07:00:58 51°15.897 2°52.98 4.8 224 7.4 98240 80
2004-05-05 07:01:02 51°15.911 2°52.971 4.8 233 7.4 98240 79
2004-05-05 07:01:08 51°15.932 2°52.957 3.4 225 7.4 98240 79
2004-05-05 07:01:13 51°15.949 2°52.946 4.1 240 7.4 98240 79
2004-05-05 07:01:18 51°15.966 2°52.934 5.1 228 7.4 98240 79
2004-05-05 07:01:20 51°15.973 2°52.93 4.9 231 7.4 98240 80
2004-05-05 07:01:28 51°16 2°52.911 6.1 221 7.4 98240 80
2004-05-05 07:01:33 51°16.017 2°52.9 5.1 213 7.5 98240 80
2004-05-05 07:01:37 51°16.031 2°52.89 4.3 219 7.5 98240 80
2004-05-05 07:01:41 51°16.045 2°52.881 4.1 223 7.5 98240 80
2004-05-05 07:01:48 51°16.069 2°52.866 4.3 220 7.5 98240 80
2004-05-05 07:01:53 51°16.086 2°52.854 3.9 218 7.5 98250 80
2004-05-05 07:01:58 51°16.103 2°52.843 5.3 219 7.5 98250 80
2004-05-05 07:02:02 51°16.117 2°52.834 5.1 219 7.5 98240 80
2004-05-05 07:02:08 51°16.137 2°52.82 4 240 7.5 98240 80
2004-05-05 07:02:13 51°16.155 2°52.808 3.7 214 7.5 98240 80
2004-05-05 07:02:17 51°16.169 2°52.8 5.1 214 7.5 98240 80
2004-05-05 07:02:21 51°16.182 2°52.791 4.8 221 7.5 98240 80
2004-05-05 07:02:28 51°16.206 2°52.776 4.3 228 7.5 98240 80
2004-05-05 07:02:33 51°16.224 2°52.765 4.8 226 7.5 98240 80
2004-05-05 07:02:38 51°16.241 2°52.755 3.9 222 7.5 98240 80
2004-05-05 07:02:42 51°16.255 2°52.748 4.7 225 7.5 98240 80
2004-05-05 07:02:48 51°16.276 2°52.735 6.3 217 7.5 98240 80
2004-05-05 07:02:53 51°16.293 2°52.726 5.1 222 7.5 98240 80
2004-05-05 07:02:58 51°16.311 2°52.716 5.4 224 7.5 98240 80
2004-05-05 07:03:02 51°16.324 2°52.708 5.6 230 7.5 98240 80
2004-05-05 07:03:08 51°16.345 2°52.696 4.6 219 7.5 98240 80
2004-05-05 07:03:13 51°16.362 2°52.686 5.6 229 7.5 98240 80
2004-05-05 07:03:18 51°16.38 2°52.675 6.1 230 7.5 98240 80
2004-05-05 07:03:22 51°16.393 2°52.668 5.7 228 7.5 98250 80
2004-05-05 07:03:28 51°16.414 2°52.656 5.9 223 7.5 98250 80
2004-05-05 07:03:33 51°16.432 2°52.646 4.9 227 7.5 98240 80
2004-05-05 07:03:38 51°16.449 2°52.636 5.4 221 7.5 98240 80
2004-05-05 07:03:42 51°16.463 2°52.629 4.6 235 7.5 98240 80
2004-05-05 07:03:48 51°16.484 2°52.618 5.9 227 7.5 98240 80
2004-05-05 07:03:53 51°16.501 2°52.609 5.2 234 7.5 98250 80
2004-05-05 07:03:58 51°16.519 2°52.6 4.9 217 7.5 98250 80
2004-05-05 07:04:02 51°16.533 2°52.592 5 228 7.5 98240 80
2004-05-05 07:04:08 51°16.553 2°52.581 4.2 217 7.5 98240 80
2004-05-05 07:04:13 51°16.571 2°52.572 5.1 210 7.5 98240 80
2004-05-05 07:04:18 51°16.588 2°52.564 4.2 218 7.5 98240 80
2004-05-05 07:04:22 51°16.602 2°52.557 3.6 214 7.4 98240 80
2004-05-05 07:04:28 51°16.623 2°52.547 4.5 219 7.4 98240 80
2004-05-05 07:04:33 51°16.64 2°52.539 5.2 218 7.5 98240 80
2004-05-05 07:04:38 51°16.658 2°52.53 5.1 227 7.5 98240 80
2004-05-05 07:04:42 51°16.671 2°52.523 5.3 218 7.4 98240 80
2004-05-05 07:04:48 51°16.692 2°52.512 4.4 219 7.4 98240 80
2004-05-05 07:04:53 51°16.708 2°52.503 4.8 218 7.4 98240 80
2004-05-05 07:04:58 51°16.725 2°52.494 5 221 7.4 98240 80
2004-05-05 07:05:01 51°16.735 2°52.488 4.5 220 7.4 98240 80
2004-05-05 07:05:08 51°16.758 2°52.476 4.7 222 7.4 98240 80
2004-05-05 07:05:13 51°16.774 2°52.468 4.2 226 7.4 98240 80
2004-05-05 07:05:18 51°16.79 2°52.459 5 231 7.4 98240 80
2004-05-05 07:05:22 51°16.804 2°52.453 5.3 231 7.4 98240 80
2004-05-05 07:05:28 51°16.824 2°52.442 5.4 234 7.4 98240 80
2004-05-05 07:05:33 51°16.841 2°52.434 5.4 237 7.4 98240 80
2004-05-05 07:05:38 51°16.858 2°52.424 5.4 234 7.4 98240 80
2004-05-05 07:05:42 51°16.871 2°52.418 5.7 234 7.4 98240 80
2004-05-05 07:05:48 51°16.891 2°52.407 6 236 7.4 98240 80
2004-05-05 07:05:53 51°16.908 2°52.398 5.1 231 7.4 98240 80
2004-05-05 07:05:58 51°16.924 2°52.39 6.7 225 7.4 98240 80
2004-05-05 07:06:02 51°16.938 2°52.384 3.3 224 7.4 98240 80
2004-05-05 07:06:08 51°16.957 2°52.374 5.5 227 7.4 98240 80
2004-05-05 07:06:13 51°16.974 2°52.367 5.6 223 7.4 98240 80
2004-05-05 07:06:18 51°16.991 2°52.359 4.8 215 7.4 98240 80
2004-05-05 07:06:22 51°17.004 2°52.354 5.5 220 7.4 98240 80
2004-05-05 07:06:28 51°17.025 2°52.344 4 219 7.4 98240 80
2004-05-05 07:06:33 51°17.042 2°52.336 4.3 219 7.4 98240 80
2004-05-05 07:06:38 51°17.058 2°52.327 4.7 224 7.4 98240 80
2004-05-05 07:06:41 51°17.069 2°52.322 4.9 223 7.4 98240 80
2004-05-05 07:06:48 51°17.092 2°52.308 5.1 220 7.4 98240 80
2004-05-05 07:06:53 51°17.108 2°52.298 5.4 220 7.4 98240 80
2004-05-05 07:06:56 51°17.118 2°52.292 4.2 220 7.4 98240 80
2004-05-05 07:07:01 51°17.135 2°52.282 3.2 226 7.3 98240 79
2004-05-05 07:07:08 51°17.159 2°52.267 3.2 239 7.3 98240 79
2004-05-05 07:07:13 51°17.175 2°52.258 3.7 208 7.4 98230 80
2004-05-05 07:07:18 51°17.192 2°52.249 3.6 205 7.4 98230 80
2004-05-05 07:07:22 51°17.206 2°52.242 3.9 209 7.4 98230 80
2004-05-05 07:07:28 51°17.226 2°52.232 3.5 219 7.4 98230 80
2004-05-05 07:07:33 51°17.243 2°52.224 3.5 216 7.4 98240 80
2004-05-05 07:07:37 51°17.257 2°52.218 3.7 221 7.4 98240 80
2004-05-05 07:07:42 51°17.274 2°52.21 4.3 213 7.4 98240 80
2004-05-05 07:07:48 51°17.295 2°52.199 3.8 215 7.4 98240 80
2004-05-05 07:07:53 51°17.312 2°52.19 4 215 7.4 98230 80
2004-05-05 07:07:57 51°17.325 2°52.181 4.4 227 7.4 98230 80
2004-05-05 07:08:02 51°17.341 2°52.169 3.7 226 7.4 98230 80
2004-05-05 07:08:08 51°17.361 2°52.155 3.5 230 7.4 98230 80
2004-05-05 07:08:12 51°17.374 2°52.144 3.6 259 7.4 98240 80
2004-05-05 07:08:18 51°17.392 2°52.127 3.5 248 7.4 98240 80
2004-05-05 07:08:22 51°17.405 2°52.115 5.7 250 7.4 98230 80
2004-05-05 07:08:28 51°17.423 2°52.097 7.4 231 7.4 98230 80
2004-05-05 07:08:32 51°17.435 2°52.085 6.2 227 7.4 98230 80
2004-05-05 07:08:37 51°17.45 2°52.069 4.9 239 7.4 98230 80
2004-05-05 07:08:42 51°17.466 2°52.053 4.5 233 7.5 98230 80
2004-05-05 07:08:48 51°17.484 2°52.034 5.2 221 7.5 98230 80
2004-05-05 07:08:53 51°17.499 2°52.019 6.7 228 7.5 98230 81
2004-05-05 07:08:58 51°17.514 2°52.003 6.7 229 7.5 98230 81
2004-05-05 07:09:01 51°17.523 2°51.994 5.8 233 7.5 98240 81
2004-05-05 07:09:08 51°17.545 2°51.973 5.3 221 7.5 98240 81
2004-05-05 07:09:13 51°17.56 2°51.958 5.9 219 7.5 98230 81
2004-05-05 07:09:18 51°17.575 2°51.942 7 226 7.5 98230 81
2004-05-05 07:09:22 51°17.587 2°51.931 5.8 223 7.5 98240 80
2004-05-05 07:09:28 51°17.605 2°51.912 7.3 225 7.5 98240 80
2004-05-05 07:09:32 51°17.618 2°51.901 8.2 214 7.5 98240 80
2004-05-05 07:09:38 51°17.636 2°51.882 6.8 230 7.5 98240 80
2004-05-05 07:09:42 51°17.648 2°51.87 6.6 229 7.5 98230 80
2004-05-05 07:09:48 51°17.667 2°51.852 7.1 233 7.5 98230 80
2004-05-05 07:09:53 51°17.682 2°51.836 5.8 228 7.5 98230 80
2004-05-05 07:09:58 51°17.697 2°51.821 6 234 7.5 98230 80
2004-05-05 07:10:02 51°17.709 2°51.808 5.6 225 7.5 98220 81
2004-05-05 07:10:08 51°17.728 2°51.79 5.8 226 7.5 98220 81
2004-05-05 07:10:13 51°17.743 2°51.775 4 262 7.5 98230 81
2004-05-05 07:10:16 51°17.752 2°51.767 4.4 237 7.5 98230 81
2004-05-05 07:10:21 51°17.768 2°51.752 4 233 7.5 98230 80
2004-05-05 07:10:28 51°17.789 2°51.731 4.9 272 7.5 98230 80
2004-05-05 07:10:33 51°17.805 2°51.716 4.1 254 7.5 98230 81
2004-05-05 07:10:38 51°17.82 2°51.701 4.4 255 7.5 98230 81
2004-05-05 07:10:42 51°17.832 2°51.688 4.8 250 7.6 98230 81
2004-05-05 07:10:48 51°17.85 2°51.669 4.1 258 7.6 98230 81
2004-05-05 07:10:52 51°17.862 2°51.656 4.5 252 7.6 98230 81
2004-05-05 07:10:58 51°17.881 2°51.637 4 247 7.6 98230 81
2004-05-05 07:11:01 51°17.89 2°51.628 4 238 7.6 98220 82
2004-05-05 07:11:08 51°17.912 2°51.606 3.7 251 7.6 98220 82
2004-05-05 07:11:12 51°17.925 2°51.595 6.1 253 7.6 98230 81
2004-05-05 07:11:18 51°17.944 2°51.577 5.6 249 7.6 98230 81
2004-05-05 07:11:22 51°17.957 2°51.566 6.2 251 7.7 98230 81
2004-05-05 07:11:28 51°17.976 2°51.548 4.4 245 7.7 98230 81
2004-05-05 07:11:32 51°17.989 2°51.536 4.6 251 7.7 98230 82
2004-05-05 07:11:36 51°18.002 2°51.524 4.1 253 7.7 98230 82
2004-05-05 07:11:42 51°18.021 2°51.505 5.9 267 7.7 98220 82
2004-05-05 07:11:47 51°18.036 2°51.489 4.4 259 7.7 98220 82
2004-05-05 07:11:53 51°18.056 2°51.47 5.1 253 7.6 98230 81
2004-05-05 07:11:58 51°18.071 2°51.454 4.7 258 7.6 98230 81
2004-05-05 07:12:02 51°18.084 2°51.441 5.6 245 7.6 98230 81
2004-05-05 07:12:08 51°18.103 2°51.422 6.8 236 7.6 98230 81
2004-05-05 07:12:13 51°18.12 2°51.407 6.4 239 7.6 98220 81
2004-05-05 07:12:17 51°18.132 2°51.394 4.3 250 7.6 98220 81
2004-05-05 07:12:22 51°18.149 2°51.378 3.7 254 7.7 98230 81
2004-05-05 07:12:25 51°18.158 2°51.369 4.4 235 7.7 98230 81
2004-05-05 07:12:33 51°18.184 2°51.343 5.1 233 7.7 98230 81
2004-05-05 07:12:38 51°18.2 2°51.327 4.5 237 7.7 98230 81
2004-05-05 07:12:42 51°18.213 2°51.315 4.4 229 7.7 98220 81
2004-05-05 07:12:48 51°18.232 2°51.296 4.7 248 7.7 98220 81
2004-05-05 07:12:52 51°18.245 2°51.283 6.4 246 7.7 98220 81
2004-05-05 07:12:58 51°18.265 2°51.264 7.4 251 7.7 98220 81
2004-05-05 07:13:02 51°18.277 2°51.251 7.3 255 7.7 98220 81
2004-05-05 07:13:08 51°18.296 2°51.231 7.7 247 7.7 98220 81
2004-05-05 07:13:13 51°18.312 2°51.215 5.6 255 7.8 98230 82
2004-05-05 07:13:17 51°18.325 2°51.203 7.8 249 7.8 98230 82
2004-05-05 07:13:22 51°18.341 2°51.187 8.6 236 7.7 98220 82
2004-05-05 07:13:28 51°18.36 2°51.168 6.8 238 7.7 98220 82
2004-05-05 07:13:32 51°18.373 2°51.155 6.8 242 7.7 98240 81
2004-05-05 07:13:37 51°18.389 2°51.139 9.2 231 7.7 98240 81
2004-05-05 07:13:42 51°18.405 2°51.123 9.1 236 7.7 98240 80
2004-05-05 07:13:48 51°18.424 2°51.104 7.4 239 7.7 98240 80
2004-05-05 07:13:52 51°18.437 2°51.091 5.9 249 7.6 98230 80
2004-05-05 07:13:58 51°18.456 2°51.071 6.5 255 7.6 98230 80
2004-05-05 07:14:02 51°18.468 2°51.058 4.9 258 7.6 98230 80
2004-05-05 07:14:08 51°18.487 2°51.039 7.2 244 7.6 98230 80
2004-05-05 07:14:13 51°18.504 2°51.023 5.6 257 7.6 98230 80
2004-05-05 07:14:18 51°18.52 2°51.008 5.9 254 7.6 98230 80
2004-05-05 07:14:22 51°18.533 2°50.995 6.5 251 7.7 98220 81
2004-05-05 07:14:28 51°18.552 2°50.976 8.2 247 7.7 98220 81
2004-05-05 07:14:33 51°18.567 2°50.959 6.4 249 7.7 98220 81
2004-05-05 07:14:38 51°18.583 2°50.943 8.4 241 7.7 98220 81
2004-05-05 07:14:42 51°18.596 2°50.93 4.2 252 7.7 98220 81
2004-05-05 07:14:48 51°18.615 2°50.91 7 247 7.7 98220 81
2004-05-05 07:14:53 51°18.631 2°50.895 6 250 7.6 98220 80
2004-05-05 07:14:58 51°18.647 2°50.878 5.4 253 7.6 98220 80
2004-05-05 07:15:02 51°18.66 2°50.866 6.4 236 7.6 98220 80
2004-05-05 07:15:07 51°18.676 2°50.85 5.7 250 7.6 98220 80
2004-05-05 07:15:13 51°18.695 2°50.832 6.4 249 7.6 98210 81
2004-05-05 07:15:18 51°18.711 2°50.816 7.3 254 7.6 98210 81
2004-05-05 07:15:22 51°18.724 2°50.803 6.7 241 7.7 98230 81
2004-05-05 07:15:28 51°18.743 2°50.783 7.2 247 7.7 98230 81
2004-05-05 07:15:33 51°18.759 2°50.766 7.2 244 7.7 98230 82
2004-05-05 07:15:38 51°18.774 2°50.75 6.3 239 7.7 98230 82
2004-05-05 07:15:42 51°18.787 2°50.736 7.2 232 7.7 98220 81
2004-05-05 07:15:48 51°18.805 2°50.715 6.5 260 7.7 98220 81
2004-05-05 07:15:53 51°18.821 2°50.698 5.6 261 7.7 98220 81
2004-05-05 07:15:58 51°18.837 2°50.681 7.1 248 7.7 98220 81
2004-05-05 07:16:02 51°18.849 2°50.669 7.3 246 7.7 98230 81
2004-05-05 07:16:08 51°18.868 2°50.649 7.3 242 7.7 98230 81
2004-05-05 07:16:12 51°18.881 2°50.636 6.1 251 7.7 98210 82
2004-05-05 07:16:17 51°18.897 2°50.621 5.9 259 7.7 98210 82
2004-05-05 07:16:22 51°18.913 2°50.604 6.8 262 7.7 98210 82
2004-05-05 07:16:28 51°18.932 2°50.585 6.7 258 7.7 98210 82
2004-05-05 07:16:33 51°18.948 2°50.569 6.3 251 7.7 98220 81
2004-05-05 07:16:38 51°18.964 2°50.552 5.2 254 7.7 98220 81
2004-05-05 07:16:42 51°18.977 2°50.54 4.8 256 7.8 98230 81
2004-05-05 07:16:48 51°18.996 2°50.52 5.8 259 7.8 98230 81
2004-05-05 07:16:53 51°19.012 2°50.504 4.9 262 7.7 98220 82
2004-05-05 07:16:58 51°19.028 2°50.487 5.3 256 7.7 98220 82
2004-05-05 07:17:02 51°19.041 2°50.475 7.4 256 7.7 98230 81
2004-05-05 07:17:08 51°19.06 2°50.456 8.3 246 7.7 98230 81
2004-05-05 07:17:13 51°19.076 2°50.439 7.9 246 7.7 98210 81
2004-05-05 07:17:18 51°19.092 2°50.423 9.9 236 7.7 98210 81
2004-05-05 07:17:22 51°19.104 2°50.412 9.1 243 7.8 98220 81
2004-05-05 07:17:28 51°19.124 2°50.392 5.5 251 7.8 98220 81
2004-05-05 07:17:32 51°19.137 2°50.379 6.3 245 7.8 98210 81
2004-05-05 07:17:38 51°19.155 2°50.36 7.3 239 7.8 98210 81
2004-05-05 07:17:42 51°19.168 2°50.347 7.4 240 7.8 98220 81
2004-05-05 07:17:48 51°19.187 2°50.327 6.8 236 7.8 98220 81
2004-05-05 07:17:53 51°19.203 2°50.312 5.8 247 7.7 98220 81
2004-05-05 07:17:58 51°19.219 2°50.295 7 254 7.7 98220 81
2004-05-05 07:18:02 51°19.232 2°50.283 5.7 258 7.7 98220 81
2004-05-05 07:18:08 51°19.251 2°50.264 6.1 261 7.7 98220 81
2004-05-05 07:18:13 51°19.267 2°50.249 6.7 250 7.7 98220 80
2004-05-05 07:18:18 51°19.283 2°50.233 6.8 247 7.7 98220 80
2004-05-05 07:18:22 51°19.296 2°50.22 6.8 247 7.7 98220 81
2004-05-05 07:18:28 51°19.314 2°50.2 7 249 7.7 98220 81
2004-05-05 07:18:33 51°19.329 2°50.18 7.5 246 7.7 98220 81
2004-05-05 07:18:38 51°19.343 2°50.16 6.7 257 7.7 98220 81
2004-05-05 07:18:42 51°19.354 2°50.144 5.4 251 7.7 98230 81
2004-05-05 07:18:48 51°19.371 2°50.119 5.7 256 7.7 98230 81
2004-05-05 07:18:53 51°19.384 2°50.098 8.9 258 7.7 98220 80
2004-05-05 07:18:58 51°19.398 2°50.076 8.9 265 7.7 98220 80
2004-05-05 07:19:02 51°19.409 2°50.059 6.2 256 7.7 98220 81
2004-05-05 07:19:08 51°19.425 2°50.034 7.1 253 7.7 98220 81
2004-05-05 07:19:12 51°19.436 2°50.017 9.6 246 7.7 98220 81
2004-05-05 07:19:18 51°19.453 2°49.991 8.2 246 7.7 98220 81
2004-05-05 07:19:22 51°19.464 2°49.973 6.1 254 7.7 98220 81
2004-05-05 07:19:28 51°19.481 2°49.947 6.5 245 7.7 98220 81
2004-05-05 07:19:33 51°19.496 2°49.925 7.3 247 7.7 98220 81
2004-05-05 07:19:38 51°19.51 2°49.903 6.3 252 7.7 98220 81
2004-05-05 07:19:41 51°19.518 2°49.89 6.9 258 7.7 98230 81
2004-05-05 07:19:48 51°19.537 2°49.857 6.4 251 7.7 98230 81
2004-05-05 07:19:53 51°19.549 2°49.833 8.4 261 7.7 98220 81
2004-05-05 07:19:58 51°19.561 2°49.809 9.3 262 7.7 98220 81
2004-05-05 07:20:02 51°19.571 2°49.789 9.8 275 7.8 98220 81
2004-05-05 07:20:08 51°19.585 2°49.759 10.8 276 7.8 98220 81
2004-05-05 07:20:13 51°19.597 2°49.734 12.5 280 7.8 98210 81
2004-05-05 07:20:18 51°19.608 2°49.708 10.8 260 7.8 98210 81
2004-05-05 07:20:21 51°19.616 2°49.693 13.4 268 7.8 98230 81
2004-05-05 07:20:28 51°19.632 2°49.657 11.5 274 7.8 98230 81
2004-05-05 07:20:33 51°19.643 2°49.632 14.4 279 7.8 98220 82
2004-05-05 07:20:38 51°19.654 2°49.606 14.9 269 7.8 98220 82
2004-05-05 07:20:42 51°19.663 2°49.586 15.8 275 7.8 98210 82
2004-05-05 07:20:46 51°19.67 2°49.563 13.1 280 7.8 98210 82
2004-05-05 07:20:53 51°19.682 2°49.523 13 267 7.8 98220 82
2004-05-05 07:20:58 51°19.689 2°49.494 17.2 280 7.8 98220 82
2004-05-05 07:21:02 51°19.695 2°49.47 13.9 286 7.8 98230 81
2004-05-05 07:21:08 51°19.704 2°49.434 15.6 291 7.8 98230 81
2004-05-05 07:21:12 51°19.709 2°49.41 16.7 296 7.8 98190 81
2004-05-05 07:21:16 51°19.714 2°49.386 16.6 297 7.8 98190 81
2004-05-05 07:21:22 51°19.721 2°49.35 14.8 297 7.8 98170 81
2004-05-05 07:21:28 51°19.729 2°49.313 14.6 289 7.8 98170 81
2004-05-05 07:21:32 51°19.734 2°49.289 15.6 290 7.8 98180 81
2004-05-05 07:21:37 51°19.74 2°49.258 11.7 291 7.8 98180 81
2004-05-05 07:21:42 51°19.745 2°49.227 12.5 296 7.8 98180 81
2004-05-05 07:21:46 51°19.748 2°49.202 13 297 7.8 98180 81
2004-05-05 07:21:53 51°19.754 2°49.158 14.6 296 7.7 98170 80
2004-05-05 07:21:56 51°19.756 2°49.139 15.1 298 7.7 98170 80
2004-05-05 07:22:02 51°19.76 2°49.1 13.1 296 7.8 98180 80
2004-05-05 07:22:08 51°19.764 2°49.062 14.3 297 7.8 98180 80
2004-05-05 07:22:12 51°19.766 2°49.036 11.6 309 7.8 98180 80
2004-05-05 07:22:18 51°19.77 2°48.997 14.5 305 7.8 98180 80
2004-05-05 07:22:22 51°19.772 2°48.972 14 294 7.8 98150 80
2004-05-05 07:22:26 51°19.775 2°48.946 14.2 300 7.8 98150 80
2004-05-05 07:22:33 51°19.779 2°48.901 14.1 303 7.8 98170 80
2004-05-05 07:22:38 51°19.783 2°48.87 16.6 299 7.8 98170 80
2004-05-05 07:22:42 51°19.785 2°48.844 14.4 303 7.8 98190 81
2004-05-05 07:22:48 51°19.789 2°48.805 15.8 303 7.8 98190 81
2004-05-05 07:22:53 51°19.792 2°48.773 18.5 295 7.8 98160 81
2004-05-05 07:22:58 51°19.795 2°48.741 15.5 296 7.8 98160 81
2004-05-05 07:23:02 51°19.798 2°48.715 14.1 296 7.9 98170 81
2004-05-05 07:23:08 51°19.802 2°48.677 18 294 7.9 98170 81
2004-05-05 07:23:13 51°19.806 2°48.645 16.1 295 7.9 98170 81
2004-05-05 07:23:16 51°19.807 2°48.625 15.7 291 7.9 98170 81
2004-05-05 07:23:21 51°19.811 2°48.593 15.4 288 7.8 98160 81
2004-05-05 07:23:28 51°19.816 2°48.548 13.2 289 7.8 98160 81
2004-05-05 07:23:33 51°19.819 2°48.516 14.7 291 7.8 98160 81
2004-05-05 07:23:38 51°19.822 2°48.483 13.5 294 7.8 98160 81
2004-05-05 07:23:41 51°19.824 2°48.464 13.8 295 7.8 98170 80
2004-05-05 07:23:48 51°19.829 2°48.419 13.6 296 7.8 98170 80
2004-05-05 07:23:52 51°19.832 2°48.393 14.3 293 7.8 98180 80
2004-05-05 07:23:57 51°19.836 2°48.36 13.9 296 7.8 98180 80
2004-05-05 07:24:02 51°19.839 2°48.328 14.3 299 7.8 98170 80
2004-05-05 07:24:08 51°19.844 2°48.289 14.7 299 7.8 98170 80
2004-05-05 07:24:13 51°19.847 2°48.257 14.5 297 7.8 98190 80
2004-05-05 07:24:18 51°19.85 2°48.224 17.5 291 7.8 98190 80
2004-05-05 07:24:22 51°19.853 2°48.198 14.8 297 7.8 98190 80
2004-05-05 07:24:28 51°19.857 2°48.159 14.2 295 7.8 98190 80
2004-05-05 07:24:32 51°19.86 2°48.133 17.6 295 7.8 98180 81
2004-05-05 07:24:38 51°19.865 2°48.094 17.6 294 7.8 98180 81
2004-05-05 07:24:42 51°19.868 2°48.068 19 298 7.8 98170 81
2004-05-05 07:24:48 51°19.872 2°48.029 16.8 300 7.8 98170 81
2004-05-05 07:24:53 51°19.875 2°47.997 19.5 299 7.8 98160 81
2004-05-05 07:24:58 51°19.879 2°47.964 17.6 296 7.8 98160 81
2004-05-05 07:25:02 51°19.882 2°47.939 16.2 294 7.8 98170 81
2004-05-05 07:25:08 51°19.887 2°47.899 18.2 297 7.8 98170 81
2004-05-05 07:25:13 51°19.89 2°47.867 17.5 299 7.8 98160 80
2004-05-05 07:25:17 51°19.893 2°47.841 18 296 7.8 98160 80
2004-05-05 07:25:22 51°19.897 2°47.808 18.9 296 7.8 98160 80
2004-05-05 07:25:28 51°19.902 2°47.769 18.3 294 7.8 98160 80
2004-05-05 07:25:32 51°19.905 2°47.744 18.3 288 7.8 98160 80
2004-05-05 07:25:38 51°19.91 2°47.705 17.6 296 7.8 98160 80
2004-05-05 07:25:42 51°19.913 2°47.679 18.2 288 7.8 98140 80
2004-05-05 07:25:48 51°19.917 2°47.639 13.5 296 7.8 98140 80
2004-05-05 07:25:53 51°19.921 2°47.607 15.8 288 7.8 98130 80
2004-05-05 07:25:57 51°19.924 2°47.581 13.3 293 7.8 98130 80
2004-05-05 07:26:02 51°19.928 2°47.548 16.1 294 7.8 98160 80
2004-05-05 07:26:08 51°19.932 2°47.509 14.7 287 7.8 98160 80
2004-05-05 07:26:13 51°19.936 2°47.477 15.1 290 7.8 98160 80
2004-05-05 07:26:18 51°19.94 2°47.444 15.6 292 7.8 98160 80
2004-05-05 07:26:22 51°19.944 2°47.418 16.4 292 7.8 98180 81
2004-05-05 07:26:28 51°19.948 2°47.379 13.4 285 7.8 98180 81
2004-05-05 07:26:32 51°19.951 2°47.353 15.5 288 7.8 98180 81
2004-05-05 07:26:38 51°19.955 2°47.313 18 285 7.8 98180 81
2004-05-05 07:26:42 51°19.959 2°47.287 15.6 287 7.8 98190 81
2004-05-05 07:26:48 51°19.963 2°47.248 13.3 299 7.8 98190 81
2004-05-05 07:26:52 51°19.966 2°47.222 16.4 290 7.8 98180 81
2004-05-05 07:26:58 51°19.971 2°47.182 13.3 293 7.8 98180 81
2004-05-05 07:27:01 51°19.973 2°47.162 14.5 294 7.8 98170 81
2004-05-05 07:27:08 51°19.979 2°47.116 13.9 295 7.8 98170 81
2004-05-05 07:27:12 51°19.982 2°47.09 14.6 296 7.8 98190 81
2004-05-05 07:27:18 51°19.986 2°47.05 15.4 304 7.8 98190 81
2004-05-05 07:27:22 51°19.989 2°47.024 15.8 307 7.8 98170 81
2004-05-05 07:27:28 51°19.994 2°46.985 15.8 299 7.8 98170 81
2004-05-05 07:27:33 51°19.998 2°46.952 18 299 7.8 98190 81
2004-05-05 07:27:38 51°20.003 2°46.92 19.1 298 7.8 98190 81
2004-05-05 07:27:42 51°20.006 2°46.893 18.4 299 7.8 98180 81
2004-05-05 07:27:48 51°20.011 2°46.854 17.9 302 7.8 98180 81
2004-05-05 07:27:53 51°20.015 2°46.821 17.2 304 7.7 98140 81
2004-05-05 07:27:58 51°20.019 2°46.789 18.5 299 7.7 98140 81
2004-05-05 07:28:01 51°20.021 2°46.769 17 297 7.7 98150 80
2004-05-05 07:28:08 51°20.027 2°46.723 15.7 299 7.7 98150 80
2004-05-05 07:28:13 51°20.031 2°46.691 14.2 299 7.7 98160 80
2004-05-05 07:28:18 51°20.035 2°46.658 15.5 293 7.7 98160 80
2004-05-05 07:28:22 51°20.039 2°46.632 13.9 289 7.7 98150 80
2004-05-05 07:28:28 51°20.043 2°46.593 15.9 300 7.7 98150 80
2004-05-05 07:28:32 51°20.046 2°46.567 15.4 291 7.7 98160 80
2004-05-05 07:28:38 51°20.05 2°46.528 15.1 291 7.7 98160 80
2004-05-05 07:28:42 51°20.054 2°46.502 15.5 300 7.7 98160 80
2004-05-05 07:28:48 51°20.058 2°46.463 16.2 297 7.7 98160 80
2004-05-05 07:28:53 51°20.063 2°46.431 13.9 298 7.7 98180 80
2004-05-05 07:28:58 51°20.068 2°46.399 16 292 7.7 98180 80
2004-05-05 07:29:02 51°20.072 2°46.374 16.7 293 7.6 98150 80
2004-05-05 07:29:08 51°20.08 2°46.336 13.9 285 7.6 98150 80
2004-05-05 07:29:13 51°20.087 2°46.305 15.4 286 7.6 98170 80
2004-05-05 07:29:17 51°20.092 2°46.28 14.3 279 7.6 98170 80
2004-05-05 07:29:23 51°20.1 2°46.243 13.1 282 7.6 98170 80
2004-05-05 07:29:28 51°20.107 2°46.212 14.3 285 7.6 98170 80
2004-05-05 07:29:32 51°20.113 2°46.188 15.1 282 7.7 98170 80
2004-05-05 07:29:38 51°20.122 2°46.151 13.4 282 7.7 98170 80
2004-05-05 07:29:42 51°20.127 2°46.127 14.8 278 7.7 98170 80
2004-05-05 07:29:48 51°20.136 2°46.09 14.7 283 7.7 98170 80
2004-05-05 07:29:52 51°20.142 2°46.065 16.9 292 7.7 98180 81
2004-05-05 07:29:58 51°20.15 2°46.028 14.8 288 7.7 98180 81
2004-05-05 07:30:02 51°20.155 2°46.002 13.5 293 7.7 98200 80
2004-05-05 07:30:07 51°20.162 2°45.971 14 289 7.7 98200 80
2004-05-05 07:30:13 51°20.169 2°45.934 15.9 294 7.7 98180 81
2004-05-05 07:30:18 51°20.176 2°45.903 13.9 296 7.7 98180 81
2004-05-05 07:30:22 51°20.181 2°45.878 14.8 293 7.7 98180 81
2004-05-05 07:30:28 51°20.188 2°45.84 13.9 301 7.7 98180 81
2004-05-05 07:30:33 51°20.195 2°45.808 15.2 291 7.7 98170 81
2004-05-05 07:30:38 51°20.201 2°45.777 15.2 293 7.7 98170 81
2004-05-05 07:30:42 51°20.206 2°45.751 17.9 294 7.7 98170 81
2004-05-05 07:30:48 51°20.213 2°45.712 17.1 293 7.7 98170 81
2004-05-05 07:30:52 51°20.219 2°45.687 17.8 295 7.7 98180 81
2004-05-05 07:30:58 51°20.226 2°45.648 17.8 295 7.7 98180 81
2004-05-05 07:31:02 51°20.231 2°45.622 16.2 290 7.7 98190 81
2004-05-05 07:31:08 51°20.238 2°45.583 15.5 293 7.7 98190 81
2004-05-05 07:31:13 51°20.245 2°45.551 16.3 293 7.7 98170 81
2004-05-05 07:31:18 51°20.25 2°45.518 19.3 298 7.7 98170 81
2004-05-05 07:31:21 51°20.253 2°45.498 17.4 296 7.6 98150 80
2004-05-05 07:31:28 51°20.26 2°45.452 17.8 300 7.6 98150 80
2004-05-05 07:31:32 51°20.264 2°45.425 18.4 296 7.6 98170 80
2004-05-05 07:31:37 51°20.268 2°45.392 16.1 294 7.6 98170 80
2004-05-05 07:31:42 51°20.273 2°45.359 17 296 7.6 98150 80
2004-05-05 07:31:48 51°20.279 2°45.32 15.8 296 7.6 98150 80
2004-05-05 07:31:53 51°20.283 2°45.287 16.1 298 7.6 98150 81
2004-05-05 07:31:58 51°20.287 2°45.254 16.5 293 7.6 98150 81
2004-05-05 07:32:02 51°20.291 2°45.227 16.5 289 7.6 98150 80
2004-05-05 07:32:08 51°20.296 2°45.187 17.1 290 7.6 98150 80
2004-05-05 07:32:13 51°20.301 2°45.154 16.8 293 7.6 98150 81
2004-05-05 07:32:18 51°20.306 2°45.121 17.7 291 7.6 98150 81
2004-05-05 07:32:22 51°20.31 2°45.095 15.1 293 7.6 98150 81
2004-05-05 07:32:28 51°20.315 2°45.056 16.6 293 7.6 98150 81
2004-05-05 07:32:33 51°20.32 2°45.023 16.2 288 7.6 98160 81
2004-05-05 07:32:38 51°20.325 2°44.991 14.6 292 7.6 98160 81
2004-05-05 07:32:42 51°20.329 2°44.964 13.3 289 7.6 98170 81
2004-05-05 07:32:48 51°20.334 2°44.925 16.6 296 7.6 98170 81
2004-05-05 07:32:53 51°20.339 2°44.892 16.7 293 7.6 98160 81
2004-05-05 07:32:58 51°20.344 2°44.86 15.5 299 7.6 98160 81
2004-05-05 07:33:02 51°20.348 2°44.834 15.3 294 7.6 98150 80
2004-05-05 07:33:08 51°20.354 2°44.795 15.1 293 7.6 98150 80
2004-05-05 07:33:13 51°20.358 2°44.762 16.2 291 7.6 98170 80
2004-05-05 07:33:18 51°20.363 2°44.729 13 293 7.6 98170 80
2004-05-05 07:33:22 51°20.367 2°44.703 15.6 295 7.6 98160 81
2004-05-05 07:33:28 51°20.372 2°44.663 14.8 294 7.6 98160 81
2004-05-05 07:33:32 51°20.376 2°44.637 16.9 290 7.6 98170 81
2004-05-05 07:33:38 51°20.381 2°44.598 16.8 302 7.6 98170 81
2004-05-05 07:33:42 51°20.386 2°44.572 15.8 295 7.6 98180 81
2004-05-05 07:33:48 51°20.391 2°44.533 15.3 289 7.6 98180 81
2004-05-05 07:33:53 51°20.396 2°44.5 16 301 7.6 98160 81
2004-05-05 07:33:58 51°20.401 2°44.468 15.2 298 7.6 98160 81
2004-05-05 07:34:02 51°20.405 2°44.442 15.9 301 7.6 98190 81
2004-05-05 07:34:08 51°20.41 2°44.403 14 295 7.6 98190 81
2004-05-05 07:34:13 51°20.415 2°44.371 14.7 300 7.6 98160 81
2004-05-05 07:34:18 51°20.42 2°44.339 15.9 294 7.6 98160 81
2004-05-05 07:34:22 51°20.424 2°44.313 15.8 298 7.6 98160 81
2004-05-05 07:34:28 51°20.428 2°44.275 13.4 308 7.6 98160 81
2004-05-05 07:34:33 51°20.433 2°44.243 17 303 7.7 98160 82
2004-05-05 07:34:38 51°20.437 2°44.211 15.8 301 7.7 98160 82
2004-05-05 07:34:42 51°20.441 2°44.185 15.4 302 7.6 98160 81
2004-05-05 07:34:48 51°20.446 2°44.147 14.6 301 7.6 98160 81
2004-05-05 07:34:53 51°20.45 2°44.114 15.3 296 7.6 98170 81
2004-05-05 07:34:58 51°20.454 2°44.082 14.7 303 7.6 98170 81
2004-05-05 07:35:02 51°20.457 2°44.056 14.6 302 7.6 98130 81
2004-05-05 07:35:08 51°20.463 2°44.018 14 303 7.6 98130 81
2004-05-05 07:35:12 51°20.466 2°43.992 14 299 7.6 98140 81
2004-05-05 07:35:18 51°20.472 2°43.953 14.3 298 7.6 98140 81
2004-05-05 07:35:22 51°20.476 2°43.928 15.5 299 7.6 98170 81
2004-05-05 07:35:28 51°20.481 2°43.89 14.2 302 7.6 98170 81
2004-05-05 07:35:33 51°20.486 2°43.858 13.9 300 7.6 98160 81
2004-05-05 07:35:38 51°20.49 2°43.826 15.6 304 7.6 98160 81
2004-05-05 07:35:42 51°20.493 2°43.8 17.6 299 7.6 98170 81
2004-05-05 07:35:48 51°20.498 2°43.762 15.2 303 7.6 98170 81
2004-05-05 07:35:52 51°20.502 2°43.736 14.5 295 7.6 98160 81
2004-05-05 07:35:58 51°20.507 2°43.698 15.8 298 7.6 98160 81
2004-05-05 07:36:02 51°20.511 2°43.672 16.6 299 7.6 98160 81
2004-05-05 07:36:08 51°20.516 2°43.634 14.5 296 7.6 98160 81
2004-05-05 07:36:13 51°20.52 2°43.602 14.1 294 7.6 98140 81
2004-05-05 07:36:18 51°20.525 2°43.57 14.3 296 7.6 98140 81
2004-05-05 07:36:22 51°20.528 2°43.544 13.2 296 7.5 98170 81
2004-05-05 07:36:28 51°20.533 2°43.506 13.9 299 7.5 98170 81
2004-05-05 07:36:33 51°20.538 2°43.473 15.2 304 7.5 98160 81
2004-05-05 07:36:38 51°20.542 2°43.441 17.3 299 7.5 98160 81
2004-05-05 07:36:42 51°20.546 2°43.415 18.1 297 7.5 98180 80
2004-05-05 07:36:48 51°20.551 2°43.376 15.9 295 7.5 98180 80
2004-05-05 07:36:53 51°20.556 2°43.344 17.8 288 7.5 98190 81
2004-05-05 07:36:58 51°20.56 2°43.311 14.5 292 7.5 98190 81
2004-05-05 07:37:02 51°20.564 2°43.286 14.8 287 7.5 98160 81
2004-05-05 07:37:08 51°20.569 2°43.247 14.6 289 7.5 98160 81
2004-05-05 07:37:12 51°20.573 2°43.221 13.4 293 7.5 98140 81
2004-05-05 07:37:17 51°20.578 2°43.189 16.6 290 7.5 98140 81
2004-05-05 07:37:22 51°20.582 2°43.156 14.3 296 7.5 98150 81
2004-05-05 07:37:28 51°20.587 2°43.117 16.2 286 7.5 98150 81
2004-05-05 07:37:33 51°20.592 2°43.085 16.5 288 7.5 98160 81
2004-05-05 07:37:38 51°20.596 2°43.053 13.3 287 7.5 98160 81
2004-05-05 07:37:42 51°20.6 2°43.027 15.1 292 7.5 98160 81
2004-05-05 07:37:48 51°20.605 2°42.988 16.9 294 7.5 98160 81
2004-05-05 07:37:53 51°20.61 2°42.956 15.8 290 7.5 98160 81
2004-05-05 07:37:58 51°20.614 2°42.924 15.6 290 7.5 98160 81
2004-05-05 07:38:02 51°20.618 2°42.899 15.4 288 7.5 98160 81
2004-05-05 07:38:08 51°20.624 2°42.86 15.5 286 7.5 98160 81
2004-05-05 07:38:13 51°20.628 2°42.827 17.2 285 7.6 98160 81
2004-05-05 07:38:18 51°20.632 2°42.795 12.7 298 7.6 98160 81
2004-05-05 07:38:22 51°20.636 2°42.769 13.4 294 7.5 98180 81
2004-05-05 07:38:28 51°20.642 2°42.731 15.4 285 7.5 98180 81
2004-05-05 07:38:33 51°20.645 2°42.698 14.7 287 7.5 98170 81
2004-05-05 07:38:38 51°20.65 2°42.666 12.8 289 7.5 98170 81
2004-05-05 07:38:42 51°20.653 2°42.64 13.4 291 7.5 98160 81
2004-05-05 07:38:47 51°20.658 2°42.609 15.8 290 7.5 98160 81
2004-05-05 07:38:53 51°20.663 2°42.57 14.6 284 7.5 98150 81
2004-05-05 07:38:58 51°20.668 2°42.539 12.8 289 7.5 98150 81
2004-05-05 07:39:02 51°20.672 2°42.513 14.2 286 7.5 98180 81
2004-05-05 07:39:08 51°20.678 2°42.475 13.5 286 7.5 98180 81
2004-05-05 07:39:13 51°20.683 2°42.443 14.7 282 7.6 98180 82
2004-05-05 07:39:18 51°20.687 2°42.411 12.4 297 7.6 98180 82
2004-05-05 07:39:22 51°20.69 2°42.386 12 294 7.5 98190 81
2004-05-05 07:39:28 51°20.695 2°42.352 14 290 7.5 98190 81
2004-05-05 07:39:32 51°20.698 2°42.331 14.1 291 7.5 98160 81
2004-05-05 07:39:37 51°20.701 2°42.306 16 299 7.5 98160 81
2004-05-05 07:39:42 51°20.702 2°42.283 14.7 295 7.5 98170 81
2004-05-05 07:39:48 51°20.702 2°42.258 16 296 7.5 98170 81
2004-05-05 07:39:53 51°20.702 2°42.239 16.4 302 7.6 98180 82
2004-05-05 07:39:58 51°20.701 2°42.22 15.2 310 7.6 98180 82
2004-05-05 07:40:02 51°20.7 2°42.206 13.9 312 7.6 98170 82
2004-05-05 07:40:08 51°20.696 2°42.186 14.4 227 7.6 98170 82
2004-05-05 07:40:13 51°20.693 2°42.171 16.2 38 7.5 98170 82
2004-05-05 07:40:18 51°20.689 2°42.156 15.6 40 7.5 98170 82
2004-05-05 07:40:21 51°20.686 2°42.148 17.7 318 7.5 98160 82
2004-05-05 07:40:28 51°20.679 2°42.13 16.6 328 7.5 98160 82
2004-05-05 07:40:32 51°20.675 2°42.121 16.6 331 7.5 98170 82
2004-05-05 07:40:37 51°20.67 2°42.111 16.7 337 7.5 98170 82
2004-05-05 07:40:42 51°20.664 2°42.101 15.8 341 7.5 98160 81
2004-05-05 07:40:48 51°20.657 2°42.09 15.5 348 7.5 98160 81
2004-05-05 07:40:53 51°20.652 2°42.083 15.3 356 7.5 98160 81
2004-05-05 07:40:58 51°20.646 2°42.076 16.4 354 7.5 98160 81
2004-05-05 07:41:02 51°20.641 2°42.072 16.2 358 7.5 98160 81
2004-05-05 07:41:08 51°20.634 2°42.067 15.4 10 7.5 98160 81
2004-05-05 07:41:12 51°20.629 2°42.065 14.5 12 7.5 98150 81
2004-05-05 07:41:18 51°20.622 2°42.062 15.8 25 7.5 98150 81
2004-05-05 07:41:22 51°20.618 2°42.062 15.1 32 7.5 98170 81
2004-05-05 07:41:27 51°20.613 2°42.062 13.5 37 7.5 98170 81
2004-05-05 07:41:33 51°20.607 2°42.063 11.4 50 7.5 98210 81
2004-05-05 07:41:37 51°20.603 2°42.064 13.1 56 7.5 98210 81
2004-05-05 07:41:42 51°20.599 2°42.066 14.1 63 7.4 98200 81
2004-05-05 07:41:48 51°20.595 2°42.07 13.2 79 7.4 98200 81
2004-05-05 07:41:53 51°20.592 2°42.074 13.4 73 7.5 98180 81
2004-05-05 07:41:58 51°20.59 2°42.078 14.8 92 7.5 98180 81
2004-05-05 07:42:02 51°20.588 2°42.082 13.4 102 7.5 98180 82
2004-05-05 07:42:08 51°20.587 2°42.088 14.5 106 7.5 98180 82
2004-05-05 07:42:13 51°20.586 2°42.093 14 114 7.5 98160 82
2004-05-05 07:42:18 51°20.587 2°42.098 14.6 117 7.5 98160 82
2004-05-05 07:42:22 51°20.587 2°42.103 13.6 120 7.6 98150 83
2004-05-05 07:42:28 51°20.589 2°42.11 12.2 119 7.6 98150 83
2004-05-05 07:42:33 51°20.59 2°42.116 13.1 125 7.6 98160 83
2004-05-05 07:42:38 51°20.592 2°42.123 12.3 125 7.6 98160 83
2004-05-05 07:42:42 51°20.594 2°42.129 12.3 126 7.5 98180 82
2004-05-05 07:42:48 51°20.597 2°42.137 11.8 126 7.5 98180 82
2004-05-05 07:42:53 51°20.6 2°42.145 11.4 119 7.5 98180 82
2004-05-05 07:42:58 51°20.603 2°42.153 11.1 129 7.5 98180 82
2004-05-05 07:43:02 51°20.605 2°42.161 10.3 119 7.4 98190 81
2004-05-05 07:43:08 51°20.608 2°42.171 13.1 116 7.4 98190 81
2004-05-05 07:43:13 51°20.611 2°42.18 12 117 7.4 98190 81
2004-05-05 07:43:18 51°20.613 2°42.19 11.8 112 7.4 98190 81
2004-05-05 07:43:22 51°20.615 2°42.198 12.7 117 7.4 98200 81
2004-05-05 07:43:28 51°20.619 2°42.21 13.1 116 7.4 98200 81
2004-05-05 07:43:32 51°20.621 2°42.218 12.5 120 7.4 98200 82
2004-05-05 07:43:38 51°20.625 2°42.23 12.8 119 7.4 98200 82
2004-05-05 07:43:42 51°20.628 2°42.238 12.9 120 7.4 98190 82
2004-05-05 07:43:48 51°20.631 2°42.251 11.8 118 7.4 98190 82
2004-05-05 07:43:53 51°20.635 2°42.261 11.4 118 7.4 98190 82
2004-05-05 07:43:58 51°20.637 2°42.272 11.3 120 7.4 98190 82
2004-05-05 07:44:00 51°20.639 2°42.276 12.1 121 7.4 98190 82
2004-05-05 07:44:08 51°20.644 2°42.294 10.7 123 7.4 98190 82
2004-05-05 07:44:13 51°20.648 2°42.305 11 122 7.3 98190 81
2004-05-05 07:44:18 51°20.651 2°42.315 10.4 118 7.3 98190 81
2004-05-05 07:44:22 51°20.654 2°42.323 10.4 120 7.3 98200 81
2004-05-05 07:44:28 51°20.658 2°42.335 13.1 114 7.3 98200 81
2004-05-05 07:44:33 51°20.662 2°42.343 12.8 119 7.3 98190 81
2004-05-05 07:44:37 51°20.664 2°42.351 12.5 108 7.3 98190 81
2004-05-05 07:44:42 51°20.666 2°42.359 12.7 99 7.3 98200 81
2004-05-05 07:44:48 51°20.667 2°42.368 15.2 99 7.3 98200 81
2004-05-05 07:44:53 51°20.667 2°42.375 14.1 102 7.3 98210 81
2004-05-05 07:44:58 51°20.667 2°42.382 13.3 98 7.3 98210 81
2004-05-05 07:45:00 51°20.667 2°42.385 14.2 89 7.3 98200 82
2004-05-05 07:45:08 51°20.665 2°42.394 14.9 86 7.3 98200 82
2004-05-05 07:45:13 51°20.664 2°42.399 9.9 76 7.3 98210 82
2004-05-05 07:45:18 51°20.662 2°42.404 12.4 77 7.3 98210 82
2004-05-05 07:45:22 51°20.66 2°42.407 10.5 70 7.3 98200 82
2004-05-05 07:45:28 51°20.658 2°42.412 13.2 61 7.3 98200 82
2004-05-05 07:45:33 51°20.655 2°42.416 13.6 66 7.4 98200 82
2004-05-05 07:45:37 51°20.653 2°42.419 15 69 7.4 98200 82
2004-05-05 07:45:42 51°20.65 2°42.423 13.6 61 7.4 98190 82
2004-05-05 07:45:48 51°20.646 2°42.426 14.3 56 7.4 98190 82
2004-05-05 07:45:53 51°20.643 2°42.429 14.5 48 7.4 98200 83
2004-05-05 07:45:58 51°20.638 2°42.431 15.8 36 7.4 98200 83
2004-05-05 07:46:03 51°20.634 2°42.434 13.3 37 7.4 98170 83
2004-05-05 07:46:08 51°20.629 2°42.435 15.1 30 7.4 98170 83
2004-05-05 07:46:12 51°20.625 2°42.436 14.7 29 7.4 98200 82
2004-05-05 07:46:17 51°20.619 2°42.437 14.7 18 7.4 98200 82
2004-05-05 07:46:22 51°20.613 2°42.437 14 16 7.4 98170 82
2004-05-05 07:46:28 51°20.606 2°42.435 16.7 8 7.4 98170 82
2004-05-05 07:46:32 51°20.601 2°42.433 15.8 2 7.4 98170 82
2004-05-05 07:46:38 51°20.594 2°42.429 15.7 359 7.4 98170 82
2004-05-05 07:46:42 51°20.589 2°42.426 16.3 348 7.4 98170 82
2004-05-05 07:46:48 51°20.581 2°42.419 17.1 342 7.4 98170 82
2004-05-05 07:46:53 51°20.576 2°42.412 15.6 338 7.4 98190 82
2004-05-05 07:46:58 51°20.571 2°42.403 16.7 326 7.4 98190 82
2004-05-05 07:47:02 51°20.567 2°42.396 16.6 320 7.4 98200 82
2004-05-05 07:47:08 51°20.562 2°42.384 15.4 310 7.4 98200 82
2004-05-05 07:47:13 51°20.558 2°42.373 16.1 299 7.4 98170 82
2004-05-05 07:47:18 51°20.556 2°42.361 13.9 290 7.4 98170 82
2004-05-05 07:47:22 51°20.554 2°42.351 15.3 286 7.4 98160 82
2004-05-05 07:47:28 51°20.553 2°42.336 13.8 273 7.4 98160 82
2004-05-05 07:47:33 51°20.553 2°42.323 12 280 7.3 98140 81
2004-05-05 07:47:38 51°20.553 2°42.31 12.8 263 7.3 98140 81
2004-05-05 07:47:42 51°20.554 2°42.3 8.1 254 7.3 98150 81
2004-05-05 07:47:48 51°20.556 2°42.285 8.4 253 7.3 98150 81
2004-05-05 07:47:53 51°20.559 2°42.274 9 249 7.3 98160 81
2004-05-05 07:47:58 51°20.561 2°42.264 10.2 241 7.3 98160 81
2004-05-05 07:48:02 51°20.564 2°42.256 11.2 237 7.3 98180 82
2004-05-05 07:48:08 51°20.567 2°42.246 13.4 229 7.3 98180 82
2004-05-05 07:48:13 51°20.571 2°42.238 13.6 229 7.3 98190 82
2004-05-05 07:48:18 51°20.574 2°42.23 12.5 222 7.3 98190 82
2004-05-05 07:48:21 51°20.577 2°42.226 12.7 225 7.4 98200 82
2004-05-05 07:48:28 51°20.582 2°42.217 11.4 215 7.4 98200 82
2004-05-05 07:48:33 51°20.586 2°42.211 12.2 208 7.4 98210 82
2004-05-05 07:48:36 51°20.588 2°42.209 10 202 7.4 98210 82
2004-05-05 07:48:41 51°20.592 2°42.204 10.4 194 7.3 98210 82
2004-05-05 07:48:48 51°20.597 2°42.198 6.8 195 7.3 98210 82
2004-05-05 07:48:53 51°20.601 2°42.196 9.7 174 7.3 98210 82
2004-05-05 07:48:58 51°20.605 2°42.194 7.1 172 7.3 98210 82
2004-05-05 07:49:02 51°20.608 2°42.192 10.6 170 7.3 98230 81
2004-05-05 07:49:08 51°20.612 2°42.191 12.3 149 7.3 98230 81
2004-05-05 07:49:13 51°20.616 2°42.19 12.2 150 7.3 98220 81
2004-05-05 07:49:18 51°20.619 2°42.19 11.1 147 7.3 98220 81
2004-05-05 07:49:22 51°20.621 2°42.19 12.2 150 7.3 98220 82
2004-05-05 07:49:28 51°20.624 2°42.191 13.9 142 7.3 98220 82
2004-05-05 07:49:32 51°20.626 2°42.192 13.4 137 7.4 98220 82
2004-05-05 07:49:38 51°20.628 2°42.194 13.4 134 7.4 98220 82
2004-05-05 07:49:41 51°20.63 2°42.195 13.2 135 7.3 98220 82
2004-05-05 07:49:48 51°20.632 2°42.197 14.7 134 7.3 98220 82
2004-05-05 07:49:53 51°20.634 2°42.199 12 134 7.3 98210 81
2004-05-05 07:49:58 51°20.635 2°42.201 13.6 129 7.3 98210 81
2004-05-05 07:50:02 51°20.636 2°42.203 12.9 124 7.3 98210 81
2004-05-05 07:50:08 51°20.637 2°42.206 13.4 124 7.3 98210 81
2004-05-05 07:50:13 51°20.638 2°42.209 13.8 124 7.3 98210 81
2004-05-05 07:50:17 51°20.639 2°42.211 13 117 7.3 98210 81
2004-05-05 07:50:22 51°20.64 2°42.214 12.5 115 7.3 98210 81
2004-05-05 07:50:28 51°20.641 2°42.218 13.2 120 7.3 98210 81
2004-05-05 07:50:33 51°20.641 2°42.221 13 117 7.3 98210 81
2004-05-05 07:50:38 51°20.642 2°42.224 11.9 113 7.3 98210 81
2004-05-05 07:50:42 51°20.642 2°42.227 12.6 105 7.3 98220 81
2004-05-05 07:50:48 51°20.643 2°42.231 12.6 116 7.3 98220 81
2004-05-05 07:50:53 51°20.644 2°42.234 10.6 118 7.3 98210 81
2004-05-05 07:50:58 51°20.644 2°42.238 10.3 112 7.3 98210 81
2004-05-05 07:51:02 51°20.644 2°42.241 10.2 120 7.3 98220 81
2004-05-05 07:51:08 51°20.645 2°42.245 11.1 113 7.3 98220 81
2004-05-05 07:51:13 51°20.646 2°42.248 13 124 7.3 98230 82
2004-05-05 07:51:18 51°20.646 2°42.252 11.4 118 7.3 98230 82
2004-05-05 07:51:22 51°20.647 2°42.255 14 116 7.3 98210 82
2004-05-05 07:51:28 51°20.648 2°42.259 14.7 120 7.3 98210 82
2004-05-05 07:51:33 51°20.649 2°42.263 14.1 121 7.4 98220 83
2004-05-05 07:51:38 51°20.65 2°42.267 12.8 113 7.4 98220 83
2004-05-05 07:51:42 51°20.651 2°42.27 13.3 119 7.4 98210 83
2004-05-05 07:51:48 51°20.652 2°42.274 13.9 122 7.4 98210 83
2004-05-05 07:51:53 51°20.653 2°42.278 14.4 121 7.4 98220 82
2004-05-05 07:51:58 51°20.654 2°42.282 13.1 120 7.4 98220 82
2004-05-05 07:52:02 51°20.655 2°42.285 12 119 7.4 98220 82
2004-05-05 07:52:08 51°20.656 2°42.29 12 118 7.4 98220 82
2004-05-05 07:52:12 51°20.657 2°42.293 11.8 117 7.4 98210 83
2004-05-05 07:52:18 51°20.658 2°42.297 11.8 112 7.4 98210 83
2004-05-05 07:52:22 51°20.659 2°42.3 11.9 118 7.3 98220 82
2004-05-05 07:52:28 51°20.66 2°42.305 10.4 117 7.3 98220 82
2004-05-05 07:52:33 51°20.661 2°42.309 10.4 120 7.4 98220 82
2004-05-05 07:52:37 51°20.662 2°42.312 12.1 116 7.4 98220 82
2004-05-05 07:52:41 51°20.663 2°42.314 12.9 115 7.4 98220 82
2004-05-05 07:52:48 51°20.665 2°42.32 12.2 119 7.4 98220 82
2004-05-05 07:52:53 51°20.666 2°42.323 14.4 120 7.4 98210 83
2004-05-05 07:52:58 51°20.667 2°42.327 14.2 115 7.4 98210 83
2004-05-05 07:53:02 51°20.668 2°42.329 13.3 126 7.4 98210 83
2004-05-05 07:53:08 51°20.67 2°42.333 15.4 121 7.4 98210 83
2004-05-05 07:53:13 51°20.672 2°42.337 15.1 123 7.4 98210 83
2004-05-05 07:53:18 51°20.673 2°42.34 14.1 121 7.4 98210 83
2004-05-05 07:53:22 51°20.674 2°42.343 13.6 125 7.4 98210 83
2004-05-05 07:53:28 51°20.676 2°42.348 12.2 128 7.4 98210 83
2004-05-05 07:53:33 51°20.678 2°42.351 13.2 122 7.4 98210 82
2004-05-05 07:53:38 51°20.679 2°42.355 12.9 125 7.4 98210 82
2004-05-05 07:53:41 51°20.68 2°42.357 13.3 119 7.4 98220 82
2004-05-05 07:53:48 51°20.682 2°42.362 12.7 118 7.4 98220 82
2004-05-05 07:53:52 51°20.683 2°42.366 12.2 121 7.4 98220 82
2004-05-05 07:53:58 51°20.684 2°42.371 13.5 115 7.4 98220 82
2004-05-05 07:54:02 51°20.685 2°42.374 13.4 109 7.4 98210 82
2004-05-05 07:54:08 51°20.685 2°42.379 14.3 103 7.4 98210 82
2004-05-05 07:54:12 51°20.685 2°42.382 14.6 104 7.4 98210 82
2004-05-05 07:54:18 51°20.685 2°42.387 14.5 99 7.4 98210 82
2004-05-05 07:54:22 51°20.685 2°42.391 15.6 99 7.4 98210 82
2004-05-05 07:54:28 51°20.684 2°42.396 15.1 95 7.4 98210 82
2004-05-05 07:54:32 51°20.684 2°42.399 15.9 98 7.4 98220 82
2004-05-05 07:54:37 51°20.683 2°42.403 15.2 94 7.4 98220 82
2004-05-05 07:54:40 51°20.683 2°42.405 16.5 92 7.4 98190 82
2004-05-05 07:54:48 51°20.681 2°42.411 19.2 87 7.4 98190 82
2004-05-05 07:54:53 51°20.681 2°42.415 16.7 90 7.4 98180 82
2004-05-05 07:54:58 51°20.679 2°42.419 15.3 94 7.4 98180 82
2004-05-05 07:55:02 51°20.679 2°42.422 16 97 7.4 98170 82
2004-05-05 07:55:08 51°20.678 2°42.426 15.7 98 7.4 98170 82
2004-05-05 07:55:12 51°20.677 2°42.429 16.5 100 7.3 98160 82
2004-05-05 07:55:18 51°20.676 2°42.434 16.7 112 7.3 98160 82
2004-05-05 07:55:22 51°20.676 2°42.437 14.8 102 7.4 98170 82
2004-05-05 07:55:28 51°20.675 2°42.441 13.7 104 7.4 98170 82
2004-05-05 07:55:33 51°20.674 2°42.444 15.1 91 7.3 98170 82
2004-05-05 07:55:38 51°20.673 2°42.448 13.8 101 7.3 98170 82
2004-05-05 07:55:42 51°20.672 2°42.451 14.4 106 7.4 98170 82
2004-05-05 07:55:48 51°20.671 2°42.456 14 107 7.4 98170 82
2004-05-05 07:55:52 51°20.67 2°42.458 14.6 102 7.3 98180 82
2004-05-05 07:55:58 51°20.668 2°42.463 14.3 92 7.3 98180 82
2004-05-05 07:56:02 51°20.667 2°42.467 10.9 78 7.4 98190 82
2004-05-05 07:56:08 51°20.664 2°42.472 9.2 71 7.4 98190 82
2004-05-05 07:56:13 51°20.662 2°42.476 12.1 72 7.3 98190 82
2004-05-05 07:56:18 51°20.659 2°42.48 15.1 64 7.3 98190 82
2004-05-05 07:56:22 51°20.656 2°42.483 16.2 62 7.4 98180 82
2004-05-05 07:56:28 51°20.651 2°42.487 16.6 47 7.4 98180 82
2004-05-05 07:56:33 51°20.647 2°42.49 15.8 44 7.4 98190 82
2004-05-05 07:56:38 51°20.643 2°42.493 15.3 37 7.4 98190 82
2004-05-05 07:56:42 51°20.638 2°42.494 15.9 39 7.4 98190 82
2004-05-05 07:56:48 51°20.632 2°42.496 14.1 32 7.4 98190 82
2004-05-05 07:56:52 51°20.628 2°42.496 14.2 21 7.4 98180 82
2004-05-05 07:56:58 51°20.621 2°42.496 14.7 9 7.4 98180 82
2004-05-05 07:57:02 51°20.616 2°42.495 14.7 3 7.3 98190 81
2004-05-05 07:57:08 51°20.609 2°42.492 16.1 5 7.3 98190 81
2004-05-05 07:57:12 51°20.604 2°42.49 16.5 357 7.3 98190 81
2004-05-05 07:57:18 51°20.597 2°42.484 16.9 352 7.3 98190 81
2004-05-05 07:57:22 51°20.592 2°42.48 14.7 350 7.3 98200 81
2004-05-05 07:57:28 51°20.586 2°42.473 16.5 337 7.3 98200 81
2004-05-05 07:57:33 51°20.581 2°42.466 15.2 329 7.3 98190 81
2004-05-05 07:57:38 51°20.576 2°42.457 14.4 320 7.3 98190 81
2004-05-05 07:57:42 51°20.573 2°42.45 14 228 7.3 98190 81
2004-05-05 07:57:48 51°20.569 2°42.438 14.1 311 7.3 98190 81
2004-05-05 07:57:52 51°20.566 2°42.429 13.9 298 7.3 98200 82
2004-05-05 07:57:58 51°20.563 2°42.416 14.9 292 7.3 98200 82
2004-05-05 07:58:02 51°20.562 2°42.407 12.5 280 7.3 98180 81
2004-05-05 07:58:08 51°20.561 2°42.392 12.8 274 7.3 98180 81
2004-05-05 07:58:13 51°20.561 2°42.38 10.9 258 7.3 98180 81
2004-05-05 07:58:18 51°20.562 2°42.369 8.7 259 7.3 98180 81
2004-05-05 07:58:22 51°20.563 2°42.36 12.6 259 7.3 98190 81
2004-05-05 07:58:28 51°20.566 2°42.347 7.7 253 7.3 98190 81
2004-05-05 07:58:33 51°20.568 2°42.335 12.1 244 7.3 98190 81
2004-05-05 07:58:38 51°20.571 2°42.323 11 246 7.3 98190 81
2004-05-05 07:58:41 51°20.573 2°42.317 14.5 238 7.3 98210 81
2004-05-05 07:58:48 51°20.578 2°42.301 12.7 239 7.3 98210 81
2004-05-05 07:58:53 51°20.581 2°42.289 12.2 234 7.3 98220 81
2004-05-05 07:58:58 51°20.586 2°42.278 10.6 238 7.3 98220 81
2004-05-05 07:59:02 51°20.589 2°42.268 7.5 243 7.3 98240 81
2004-05-05 07:59:08 51°20.595 2°42.254 13.2 235 7.3 98240 81
2004-05-05 07:59:13 51°20.6 2°42.243 13.2 242 7.3 98260 81
2004-05-05 07:59:18 51°20.605 2°42.231 11.5 242 7.3 98260 81
2004-05-05 07:59:22 51°20.609 2°42.221 10.7 241 7.3 98240 81
2004-05-05 07:59:28 51°20.615 2°42.206 10 230 7.3 98240 81
2004-05-05 07:59:33 51°20.621 2°42.195 9.1 238 7.3 98230 81